Location: Ajisawe
(8.4333°N, 4.3833°E)
Time: 10:06:40
(UTC+00:00)

Vanguard 2 Rocket - Pass Details

Date: 28 April 2021
Orbit: 553 x 3326 km, 32.9° (Epoch: 07 May)

Event Time Altitude Azimuth Distance (km) Brightness Sun altitude
Rises 06:31:04 0° 210° (SSW) 3,280 9.4 14.4°
Reaches altitude 10° 06:33:20 10° 200° (SSW) 2,576 9.0 14.9°
Maximum altitude 06:38:56 34° 135° (SE) 1,916 9.2 16.3°
Drops below altitude 10° 06:47:58 10° 75° (ENE) 4,221 12.9 18.4°
Sets 06:52:49 0° 68° (ENE) 5,725 12.5 19.6°
